Regional Weather Roundup
Issued by NWS Jackson, KY

Home | Current Version | Previous Version | Graphics & Text | Print | Product List | Glossary On
Versions: 1 2 3 4 5 6 7 8 9 10 11 12 13 14 15 16 17 18 19 20 21 22 23 24 25 26 27 28 29 30 31 32 33 34 35 36 37 38 39 40 41 42 43 44 45 46 47 48 49 50
000
ASUS43 KJKL 021410
RWRJKL

EAST KENTUCKY HOURLY WEATHER ROUNDUP
NATIONAL WEATHER SERVICE JACKSON KY
1000 AM EDT MON MAY 02 2016

NOTE: "FAIR" INDICATES FEW OR NO CLOUDS BELOW 12,000 FEET WITH
NO SIGNIFICANT WEATHER AND/OR OBSTRUCTIONS TO VISIBILITY.

* THESE REPORTS ARE NOT UNDER NWS QUALITY CONTROL AND MAY NOT
  REPORT WEATHER SUCH AS PRECIPITATION AND FOG.

KYZ079-080-083-085-087-088-110-112-115-119-120-021500
...EASTERN KENTUCKY...

CITY           SKY/WX    TMP DP  RH WIND       PRES   REMARKS
JACKSON        CLOUDY    67  61  81 CALM      30.02F
LONDON         CLOUDY    67  61  81 S6        30.02S
SOMERSET*      CLOUDY    66  61  82 CALM      30.02S
MONTICELLO*    CLOUDY    68  63  84 NE8       30.02F
WILLIAMSBURG*  CLOUDY    61  59  94 SW6       30.02S
MIDDLESBORO*   CLOUDY    71  65  80 NE5       30.03F
HARLAN APT*    CLOUDY    63  61  94 CALM      30.05R VSB 1
HAZARD APT*    CLOUDY    68  66  94 SW5       30.03
BLACK MTN*       N/A     59  59 100 S3          N/A
BIG SANDY APT* PTSUNNY   69  64  83 W3        30.02S
MOREHEAD APT*  PTSUNNY   66  61  82 S7        30.02R
$$

KYZ035-036-041-042-044-050-067-078-099-021500
...CENTRAL KENTUCKY...

CITY           SKY/WX    TMP DP  RH WIND       PRES   REMARKS
MT STERLING*   SUNNY     66  59  77 W6        30.01F
FLEMING/MASON* MOSUNNY   66  60  81 W10       30.00S
DANVILLE*      SUNNY     66  54  63 N3        30.02S
RICHMOND*      MOSUNNY   66  57  72 CALM      30.01S
LEXINGTON      SUNNY     65  57  75 SW7       30.00F
FRANKFORT      SUNNY     65  55  70 VRB5      29.99S
LOUISVILLE     PTSUNNY   63  53  70 W6        30.00F
LEBANON*         N/A     66  55  68 CALM      30.01S
BOWLING GREEN  CLOUDY    65  53  65 NE5       30.01F
$$

KYZ091>093-OHZ055-061-077-WVZ005-015-034-035-042-021500
...SOUTHERN OHIO/WEST VIRGINIA...

CITY           SKY/WX    TMP DP  RH WIND       PRES   REMARKS
COVINGTON      CLOUDY    63  55  77 W9        29.99R
COLUMBUS       LGT RAIN  54  54 100 NW10      29.97R FOG
DAYTON         CLOUDY    53  52  96 N9        29.99R FOG
WILMINGTON     CLOUDY    60  56  86 W13       29.97R
HUNTINGTON       N/A     70  60  70 SW7       29.98S
CHARLESTON     PTSUNNY   70  61  73 W8        29.98S
PINEVILLE*     CLOUDY    69  61  75 MISG      30.08S
BECKLEY        PTSUNNY   65  60  84 W10       30.05S
$$

VAZ002-007-008-TNZ017-027-036-066-071-021500
...SOUTHWEST VIRGINIA/EAST TENNESSEE...

CITY           SKY/WX    TMP DP  RH WIND       PRES   REMARKS
WISE*          PTSUNNY   68  61  77 SW9       30.08F
BRISTOL        PTSUNNY   71  61  70 S12       30.05F
MORRISTOWN*    CLOUDY    68  61  77 W7        30.04S
SEVIERVILLE*   PTSUNNY   70  57  64 CALM      30.02F
KNOXVILLE      PTSUNNY   70  63  78 CALM      30.02F
OAK RIDGE      CLOUDY    69  62  78 VRB3      30.04F
CROSSVILLE     CLOUDY    67  61  81 CALM      30.04F
NASHVILLE      CLOUDY    64  52  64 N8        30.02R
$$

...KEY TO REMARKS...
VSB - VISIBILITY IN MILES
WCI - WIND CHILL INDEX
HX  - HEAT INDEX

$$



USA.gov is the U.S. government's official web portal to all federal, state and local government web resources and services.